Regional Weather Roundup
Issued by NWS

Home | Current Version | Previous Version | Graphics & Text | Print | Product List | Glossary On
Versions: 1 2 3 4 5 6 7 8 9 10 11 12 13 14 15 16 17 18 19 20 21 22 23 24 25 26 27 28 29 30 31 32 33 34 35 36 37 38 39 40 41 42 43 44 45 46 47 48 49 50
000
ASUS43 KIND 070159
RWRIN

WEATHER ROUNDUP FOR INDIANA
NATIONAL WEATHER SERVICE INDIANAPOLIS IN
1000 PM EDT MON JUL 06 2015

NOTE: "FAIR" INDICATES FEW OR NO CLOUDS BELOW 12,000 FEET WITH NO
SIGNIFICANT WEATHER AND/OR OBSTRUCTIONS TO VISIBILITY.

* - STATION DOES NOT REPORT WEATHER SUCH AS PRECIPITATION OR FOG.

+ - STATION NOT QUALITY CONTROLLED BY THE NATIONAL WEATHER SERVICE.
    USE DATA WITH CAUTION...ESPECIALLY DEWPOINT AND RELATIVE
    HUMIDITY OBSERVATIONS.

INZ001>003-010>013-019-020-070300-
NORTHWEST INDIANA

CITY           SKY/WX    TMP DP  RH WIND       PRES   REMARKS
GARY /AIRPORT/ MOCLDY   N/A N/A N/A S7        29.87F
MONTICELLO +   CLOUDY    79  72  80 S5        29.91R
RENSSELAER +   CLOUDY    79  73  83 S9        29.90S

$$

LMZ046-743>745-070300-
SOUTHERN LAKE MICHIGAN

STATION/POSITION TIME  TEMP    WIND        PRES    WAVE
                       AIR SEA DIR/SP/G            HT
                 (UTC) (F)     (DEG/KT/KT) (MB)    (FT)
BURNS HARBOR     0100   75     180/ 11/ 17 1011.5F
MICHIGAN CITY    0100   76     160/ 14/ 18   N/A
5NW MICH CITY    0100   72 68  180/ 10/ 12   N/A     1

$$

INZ004-005-014>016-021>024-070300-
NORTH CENTRAL INDIANA

CITY           SKY/WX    TMP DP  RH WIND       PRES   REMARKS
GOSHEN         CLOUDY    77  67  71 S6        29.91R
SOUTH BEND     MOCLDY    80  69  69 S14       29.89S

$$

INZ006>009-017-018-025>027-070300-
NORTHEAST INDIANA

CITY           SKY/WX    TMP DP  RH WIND       PRES   REMARKS
ANGOLA *+        N/A     75  70  83 S5        29.93R
FORT WAYNE     CLOUDY    76  67  73 S8        29.94S

$$

INZ028-029-035-036-043>045-051>053-070300-
WEST CENTRAL INDIANA

CITY           SKY/WX    TMP DP  RH WIND       PRES   REMARKS
CRAWFORDSVL +  CLOUDY    76  68  76 S7        29.95R
GREENCASTLE +  CLOUDY    77  68  73 S7        29.97R
LAFAYETTE      CLOUDY    78  71  79 S5        29.92R
TERRE HAUTE    CLOUDY    73  70  90 CALM      29.95S

$$

INZ030>032-037>040-046>048-054>057-064-065-070300-
CENTRAL INDIANA

CITY           SKY/WX    TMP DP  RH WIND       PRES   REMARKS
FRANKFORT +    CLOUDY    77  72  82 SE3       29.96S
GREENWOOD *+   MOCLDY    77  68  73 S7        29.98R
INDIANAPOLIS   MOCLDY    78  69  73 S8        29.96R
-EAGLE CREEK   CLOUDY    79  70  74 VRB5      29.96R
KOKOMO *+      CLOUDY    79  66  65 S9        29.94R
MT COMFORT *+  MOCLDY    77  66  69 S6        29.98R
SHELBYVILLE    PTCLDY    78  71  79 S6        29.97R

$$

INZ033-034-041-042-049-050-058-059-070300-
EAST CENTRAL INDIANA

CITY           SKY/WX    TMP DP  RH WIND       PRES   REMARKS
MUNCIE         MOCLDY    79  68  69 S10       29.96S

$$

INZ060-061-067>069-081>083-085>088-070300-
SOUTHWEST INDIANA

CITY           SKY/WX    TMP DP  RH WIND       PRES   REMARKS
EVANSVILLE     PTCLDY    82  72  71 S8        29.98R
HUNTINGBURG *+ MOCLDY    79  72  78 S6        29.99R

$$

INZ062-063-066-070>080-084-089>092-070300-
SOUTH CENTRAL AND SOUTHEAST INDIANA

CITY           SKY/WX    TMP DP  RH WIND       PRES   REMARKS
BLOOMINGTON    MOCLDY    77  71  82 S5        29.98R
MADISON *+     CLEAR     73  70  88 CALM      30.03R
SEYMOUR +      PTCLDY    77  70  78 S5        29.98S

$$




USA.gov is the U.S. government's official web portal to all federal, state and local government web resources and services.